Find Starlink 37169

NORAD ID: 68346 Int'l Des: 2026-059 Owner: SPXS Country: US Constellation: starlink operational
LEOCIRCULAR

リアルタイム位置

3D地球を読み込み中...

Starlink 37169について

説明を読み込み中...

次回通過

Passes for default location (London). Set your location on the main map for personalized predictions.

高度履歴

Loading altitude history...

軌道要素

1 68346U 26059AB 26127.21581486 .00024250 00000-0 44217-3 0 9996
2 68346 53.1591 74.4672 0001110 90.1570 269.9566 15.49344187 7161
Epoch: May 7, 2026 • Age: 10 hours

現在のステータス

高度 418.6 km
速度 7.66 km/s
衛星直下点 18.65°N, 145.33°E
打ち上げ日 Mar 22, 2026
運用期間 0.1 years
タイプ internet

技術仕様

分類 Payload
質量 575.00 kg
乾燥質量 530.00 kg
総質量 575.00 kg
長さ 0.30 m
直径 4.10 m
スパン 29.00 m
形状 Box + pan
製造者 SPXS
バスタイプ Starlink V2MO
フェーズステータス In Orbit
所有者/国 SPXS/US

Most Searched